Location: Chacón
(10.5789°N, 66.9317°W)
Time: 13:58:54
(UTC+00:00)

Cosmos 2333 - Visible Passes

Search period start: 16 December 2025 00:00
Search period end: 26 December 2025 00:00
Orbit: 827 x 865 km, 70.9° (Epoch: 15 December)

Date Brightness Start Highest point End Pass type
(mag) Time Alt. Az. Time Alt. Az. Time Alt. Az.
16 Dec 5.3 23:17:14 10° SW 23:22:40 44° WNW 23:28:07 10° N visible
17 Dec 4.3 10:12:26 10° NNW 10:18:05 89° ENE 10:23:41 10° SSE visible
17 Dec 5.3 23:03:33 10° SW 23:08:59 45° WNW 23:14:29 10° N visible
18 Dec 4.3 09:58:45 10° NNW 10:04:24 87° ENE 10:10:00 10° SSE visible
18 Dec 5.3 22:49:50 10° SW 22:55:19 47° WNW 23:00:50 10° N visible
19 Dec 4.2 09:45:05 10° NNW 09:50:44 84° ENE 09:56:20 10° SSE visible
19 Dec 5.2 22:36:08 10° SSW 22:41:39 49° WNW 22:47:11 10° N visible
20 Dec 4.2 09:31:25 10° NNW 09:37:04 81° ENE 09:42:39 10° SSE visible
20 Dec 5.2 22:22:26 10° SSW 22:27:59 51° WNW 22:33:33 10° N visible
21 Dec 4.3 09:18:33 14° NNW 09:23:23 78° ENE 09:28:58 10° SSE visible
22 Dec 4.3 09:06:16 24° N 09:09:43 75° ENE 09:15:17 10° SSE visible
23 Dec 4.3 08:53:58 40° N 08:56:03 73° ENE 09:01:36 10° SSE visible
24 Dec 4.3 08:41:38 62° NNE 08:42:22 70° ENE 08:47:55 10° SSE visible
25 Dec 4.5 08:29:17 63° ESE 08:29:17 63° ESE 08:34:14 10° SSE visible
